Theta_e
312 313 313 314 313 313 313 313 313 313 313 313 314 314 315 314 311 310 310 308 308 312 313 313 313 313 313 313 314 314 312 311 311 312 313 313 314 314 314 314 315 315 314 315 314 314 314 314 315 314 315 315 314 315 315 314 315 315 315 315 315 314 314 314 314 314 314 314 314 314 314 314 314 314 314 315 317 317 315 313 321 329 330 324 325 331
312 314 314 314 313 312 311 310 310 311 312 312 312 312 313 314 312 310 310 309 307 311 313 312 311 312 313 313 314 314 312 312 312 313 314 314 314 315 315 315 315 315 315 315 315 314 314 314 314 314 314 314 314 314 314 314 315 314 315 315 315 315 314 315 314 314 314 314 314 314 314 314 314 314 315 316 317 317 316 316 321 328 331 324 320 323
313 314 314 311 309 309 309 308 310 311 312 312 312 312 312 312 312 310 309 309 307 311 313 311 311 314 314 314 315 315 314 313 313 314 314 314 315 315 315 316 315 316 316 316 316 316 315 315 315 315 315 315 315 315 314 315 315 314 315 315 315 315 314 315 314 314 314 314 314 314 314 314 314 315 315 317 318 319 319 319 320 323 324 322 320 320
313 313 311 308 307 309 309 309 311 312 311 313 313 312 313 313 313 311 311 309 307 308 311 311 312 314 315 314 314 314 313 312 313 313 314 314 314 315 315 315 315 315 315 315 316 316 316 316 315 315 315 315 315 314 314 314 314 315 315 315 315 315 315 314 315 315 314 314 314 314 314 314 314 314 315 316 318 318 319 319 319 319 318 321 324 322
313 309 305 305 308 311 310 309 311 312 312 314 315 315 315 314 313 313 311 309 308 307 308 311 313 314 315 315 314 313 309 308 310 311 312 313 314 314 315 315 315 315 315 315 315 315 315 315 315 315 314 314 314 314 314 314 314 314 314 315 315 315 315 315 315 315 314 315 314 314 314 314 315 315 315 316 316 316 317 318 318 319 318 321 323 323
311 305 303 307 309 312 312 310 313 314 312 313 315 315 314 313 313 313 312 311 312 311 309 310 311 312 315 314 314 313 310 310 310 309 311 312 313 313 314 314 314 314 314 315 315 315 315 315 314 315 314 314 314 314 314 314 313 313 313 314 314 314 315 315 315 315 315 315 315 314 315 315 315 315 315 315 316 316 316 317 318 319 320 321 322 323
308 303 305 310 311 313 313 311 315 316 313 312 313 313 313 314 316 315 314 314 314 313 309 308 311 312 314 315 314 311 312 314 312 312 312 311 312 312 312 312 313 313 313 314 314 315 314 314 314 314 314 314 314 314 314 314 313 313 313 313 314 314 315 315 315 315 315 315 315 315 315 315 315 315 316 316 316 316 317 318 319 320 321 322 323 323
306 305 308 311 312 313 312 312 314 314 312 314 313 313 313 315 318 317 316 314 313 312 310 310 312 312 312 315 314 310 312 314 313 314 314 311 311 312 312 312 313 313 313 314 314 314 314 314 314 314 314 314 314 314 314 314 314 313 313 313 313 315 315 315 315 315 316 315 315 315 315 315 315 315 316 316 316 317 317 318 319 321 321 322 323 324
307 309 310 311 312 312 313 315 314 314 314 314 310 311 313 314 316 316 314 313 311 311 312 312 312 311 311 315 313 310 312 314 315 315 314 312 311 312 313 314 314 314 314 313 314 314 314 314 314 314 314 314 314 314 314 314 314 313 313 313 313 315 315 315 315 315 315 315 315 315 315 315 315 316 316 316 316 317 317 318 318 320 321 321 322 322
309 309 308 310 312 312 313 311 310 315 316 311 307 310 312 313 314 314 313 312 311 311 313 312 310 310 312 317 316 311 311 314 315 314 312 312 312 313 314 314 314 314 313 313 313 313 314 313 314 314 314 314 314 314 314 314 314 314 314 313 313 314 315 315 315 315 315 316 315 315 315 316 316 316 316 316 316 316 316 317 317 317 318 319 319 320
308 307 307 310 311 310 308 306 306 312 312 308 310 313 313 313 313 312 311 311 311 312 312 308 307 309 310 317 319 313 312 314 313 312 311 311 312 312 313 313 313 313 312 312 312 312 313 313 314 315 314 315 315 314 314 314 314 314 314 314 313 314 315 315 315 315 315 315 315 316 316 316 316 316 316 316 315 315 315 315 315 316 316 317 317 318
309 309 309 309 307 306 308 308 306 306 307 309 314 314 313 313 312 312 310 310 312 313 309 305 306 308 309 314 316 313 311 312 311 311 312 312 312 312 312 313 314 314 312 311 312 312 313 314 315 315 315 315 314 314 314 314 314 314 314 314 314 314 315 315 315 315 315 315 316 316 316 316 316 316 316 316 315 315 315 315 315 315 315 315 315 316
312 311 310 308 306 307 312 311 307 307 308 311 314 313 313 313 312 313 312 312 313 311 307 305 306 308 310 312 313 312 312 311 309 310 312 311 311 311 312 313 313 314 315 314 314 315 315 315 316 316 315 315 315 315 315 314 314 314 314 314 314 315 315 315 315 316 316 316 316 316 316 316 316 316 316 316 316 315 315 315 315 315 315 315 315 315
313 313 310 310 309 309 312 312 310 310 310 312 314 313 313 313 312 313 312 310 311 310 306 304 306 309 311 312 312 313 312 310 308 308 309 309 310 311 312 313 314 314 315 315 315 315 315 316 316 316 316 316 316 315 315 315 315 315 315 315 315 316 316 316 316 316 316 316 316 316 316 316 316 316 316 316 316 316 316 316 315 315 315 315 315 315
314 313 311 312 311 310 311 312 312 314 311 312 316 314 313 314 314 313 312 311 311 310 306 304 307 311 312 311 312 311 308 308 308 308 309 309 310 312 313 313 314 314 315 315 315 315 315 316 316 316 316 316 316 316 316 316 316 316 316 316 316 316 316 316 316 316 316 316 316 316 316 316 316 316 316 316 317 316 316 316 316 316 316 315 315 315
313 312 311 309 307 308 311 310 311 314 312 311 311 312 312 314 313 310 308 309 309 309 308 308 310 312 312 311 312 310 307 306 306 307 309 310 311 312 313 314 314 314 314 315 315 315 315 315 316 316 316 316 316 316 316 316 316 316 316 316 316 316 316 316 316 316 316 316 316 316 316 316 316 316 316 317 317 316 316 316 316 316 316 316 315 315
311 311 311 309 307 307 309 308 308 311 312 310 309 310 311 312 314 310 306 305 306 309 311 310 311 312 311 311 313 312 310 309 308 308 308 309 311 311 312 314 314 314 314 313 314 314 314 315 315 315 316 316 316 316 316 316 316 316 316 316 316 316 316 316 316 317 316 317 317 316 317 316 316 316 316 316 316 316 316 316 317 317 317 316 316 316
312 311 311 312 311 308 306 306 307 307 309 311 312 311 309 309 312 311 309 308 307 310 311 309 310 310 309 312 316 314 311 311 311 309 308 308 310 311 312 314 314 313 313 313 312 312 313 314 314 315 315 315 316 316 316 316 316 316 316 316 316 315 315 316 316 317 317 317 317 317 317 316 316 316 316 316 316 316 316 316 317 317 317 317 316 316
316 313 311 310 312 310 307 309 310 307 306 309 311 310 310 311 311 309 310 311 310 310 311 309 307 308 309 312 315 313 311 312 311 310 309 309 310 311 312 314 313 312 312 312 313 313 313 313 314 315 315 315 316 316 316 316 316 316 316 316 316 316 315 316 316 316 317 317 317 317 317 317 316 316 316 316 316 316 316 316 317 317 317 317 316 316
316 315 312 310 311 311 310 311 312 311 307 306 307 308 311 313 312 310 310 311 311 310 310 310 307 308 311 312 313 312 311 311 310 310 311 310 311 311 311 313 312 312 313 314 314 314 313 313 314 314 315 315 315 315 316 316 316 316 316 316 316 316 316 316 316 316 316 317 317 317 317 316 317 316 316 316 316 317 316 316 316 316 316 316 316 316
313 313 313 311 310 311 312 312 313 314 310 307 308 309 310 310 309 310 309 308 310 310 309 309 308 310 312 311 311 311 310 310 310 311 311 310 311 312 311 312 314 314 315 316 315 315 314 314 315 315 315 315 315 315 316 316 316 316 316 316 316 316 316 316 317 317 317 317 317 317 317 317 317 317 317 317 317 317 317 316 316 316 316 316 316 316
312 312 314 312 310 311 312 311 309 312 312 310 309 310 312 311 310 312 311 307 308 309 309 309 309 312 315 311 310 311 309 309 308 308 309 309 309 311 313 314 315 315 315 315 315 315 315 315 315 315 315 315 315 316 316 316 316 316 316 316 316 316 317 317 317 317 317 317 317 317 317 317 317 317 317 317 317 317 317 316 316 316 316 316 316 316
311 313 314 312 312 312 311 307 303 306 312 311 310 311 313 312 312 313 313 310 307 305 305 307 308 313 316 310 307 307 305 305 304 304 307 309 310 312 315 315 315 315 314 314 315 315 315 315 315 314 314 315 315 315 315 316 316 316 317 316 317 317 317 317 317 317 317 317 317 317 317 317 317 317 317 317 317 316 316 316 316 316 316 316 316 316
311 315 314 311 311 311 310 308 306 307 311 310 310 312 312 313 314 313 312 311 309 306 307 308 308 313 317 308 303 303 302 303 304 305 306 309 311 313 314 314 313 313 313 313 313 313 314 314 314 314 314 314 314 314 314 315 315 316 316 316 316 316 316 316 316 317 317 317 317 317 316 316 316 316 316 316 316 316 316 316 316 316 316 316 316 316
311 315 315 312 312 312 311 311 311 310 310 310 311 311 311 313 313 310 310 310 310 309 310 311 310 312 316 311 305 304 304 305 306 306 307 309 311 313 313 312 312 312 312 312 312 312 313 313 313 313 313 313 313 313 314 314 314 315 315 315 316 315 316 316 316 316 316 316 316 316 316 316 316 316 315 315 316 316 315 316 316 315 315 316 315 315
313 316 314 313 314 314 314 314 314 314 312 310 312 311 310 312 312 311 310 310 310 311 310 311 312 311 312 312 310 310 310 309 308 308 308 310 312 313 312 312 312 312 312 312 312 312 312 312 312 313 313 313 313 313 313 314 314 315 315 315 315 315 315 315 315 315 316 316 316 316 316 316 315 315 315 315 315 315 315 315 315 315 315 315 315 315
315 316 313 313 314 314 315 315 316 317 314 313 314 314 312 311 312 314 312 310 312 311 309 312 314 312 310 310 311 311 312 312 310 308 309 310 312 312 311 312 312 312 312 312 312 313 312 312 312 312 313 313 313 313 313 314 314 315 315 314 314 315 315 315 315 315 315 315 315 315 315 315 315 315 315 315 315 315 315 315 315 315 315 314 314 314
316 314 313 315 315 314 315 316 316 317 316 315 316 315 313 311 312 313 313 313 314 312 310 312 314 313 312 311 312 313 313 313 311 309 309 310 312 311 311 311 312 312 312 312 312 312 312 312 312 311 311 312 312 312 312 312 313 314 314 314 314 314 314 315 315 314 315 315 315 315 315 315 315 315 315 315 315 315 314 314 314 314 313 313 313 313
315 312 313 315 314 314 316 317 317 316 315 315 316 314 312 311 312 313 313 314 314 312 312 314 315 314 312 312 314 314 312 312 311 310 310 311 311 311 311 311 311 311 311 311 311 311 311 312 311 311 311 311 311 311 311 312 312 312 313 314 314 314 314 314 314 314 314 314 314 314 315 315 314 314 315 314 314 314 313 313 313 312 312 312 312 311
312 313 314 314 312 314 316 315 315 315 314 315 316 315 312 311 312 312 313 314 314 314 314 315 317 315 312 311 314 313 310 310 310 309 310 311 311 311 310 310 310 310 310 311 310 309 310 311 311 311 312 311 311 311 311 311 312 312 313 313 314 314 313 314 314 314 314 314 314 314 314 314 314 314 313 313 312 312 312 312 311 311 311 311 310 310
309 314 315 312 311 313 313 312 312 312 313 314 314 313 311 311 312 312 313 314 314 314 314 315 316 315 311 311 312 310 308 308 308 310 310 311 311 311 311 311 311 310 310 310 309 309 310 312 311 311 312 311 311 311 311 311 312 312 313 313 313 313 313 313 313 313 313 313 313 313 313 312 312 312 312 312 312 311 311 311 310 310 309 308 308 308
309 311 312 311 311 312 311 310 311 312 312 312 312 312 311 311 311 312 312 313 313 314 314 314 314 313 311 310 310 309 308 307 309 310 311 311 312 312 312 312 311 310 310 310 309 310 311 312 312 312 312 311 311 311 311 311 312 312 312 312 312 312 313 313 313 313 313 312 312 311 311 311 311 311 311 311 311 310 309 309 308 307 307 307 306 306
311 311 311 310 312 312 309 308 312 313 311 310 311 312 311 311 312 312 312 313 313 313 313 313 313 312 311 310 310 310 310 309 310 310 311 312 312 312 311 311 310 310 310 311 311 311 312 312 312 312 312 311 311 311 311 311 311 312 312 312 312 312 312 312 312 312 312 311 311 311 311 311 310 310 310 309 309 308 307 307 307 306 306 306 306 306
312 312 311 311 312 311 307 308 312 311 309 311 312 313 312 312 312 312 312 312 312 312 312 312 312 312 311 310 311 311 311 311 311 311 311 312 311 311 311 311 311 311 311 311 311 311 312 312 312 312 311 311 311 311 311 311 311 311 311 311 311 311 311 311 311 311 311 311 311 310 310 310 309 309 308 307 307 307 306 306 306 306 306 305 305 305
312 311 309 310 310 308 305 308 311 310 310 313 314 313 312 310 310 312 312 311 311 311 312 312 311 311 311 310 310 311 310 310 311 310 311 311 311 311 311 311 311 311 311 311 311 311 311 311 311 311 311 311 311 311 311 311 311 311 311 311 311 311 311 311 311 310 310 310 310 310 309 309 308 308 307 306 306 306 306 305 305 304 304 304 304 304
311 310 309 308 308 306 305 308 311 311 311 314 313 310 309 310 310 311 312 311 310 311 311 311 311 311 311 309 309 310 310 309 309 309 310 310 310 310 310 310 310 310 311 311 310 310 310 310 310 310 310 310 310 310 310 310 310 310 310 310 310 310 310 310 310 310 309 309 309 308 308 307 307 306 305 305 304 304 304 303 303 303 302 302 302 302
309 310 309 308 307 307 307 308 310 311 311 313 312 309 309 310 310 310 312 312 310 309 310 310 310 311 311 310 308 308 308 308 309 309 309 309 309 309 310 310 310 310 310 310 310 309 309 310 310 310 310 309 310 309 310 310 310 310 310 310 310 309 309 309 309 309 308 308 307 307 306 305 304 303 303 302 302 302 302 302 302 302 302 302 303 303
309 310 311 310 308 308 308 308 309 311 311 312 313 311 309 309 310 310 311 312 311 310 309 310 310 310 311 310 308 307 308 308 309 310 309 309 309 309 309 309 309 309 309 309 309 309 309 309 309 309 309 309 309 309 309 309 309 309 309 309 309 309 308 308 308 308 307 306 305 304 303 302 302 302 302 302 302 302 303 303 303 303 303 303 303 303
311 311 311 311 309 307 308 309 309 310 311 313 315 313 309 307 309 310 310 311 312 310 309 309 310 310 311 310 308 307 308 309 310 310 309 309 308 308 308 308 308 308 308 308 308 308 308 308 308 308 308 308 308 309 308 308 308 308 308 308 308 308 307 306 306 304 303 303 302 301 301 301 301 302 302 302 303 303 303 303 303 303 303 303 302 302
310 309 309 309 309 308 309 310 310 310 312 316 317 312 307 307 309 310 311 312 311 310 309 309 309 310 310 309 307 307 309 310 311 310 309 308 308 307 307 307 307 307 307 307 308 308 308 308 308 308 308 308 308 308 308 308 308 307 307 307 306 305 304 303 302 301 301 301 301 301 301 301 301 301 301 301 301 301 301 301 301 301 301 301 300 300
310 309 309 309 310 310 309 310 310 310 314 318 314 306 305 308 310 312 314 313 310 309 309 309 309 309 309 308 307 308 308 308 309 309 308 307 307 306 306 306 306 306 307 307 307 307 307 307 307 307 307 307 307 307 306 306 305 305 304 303 302 301 300 300 301 300 300 300 300 300 300 300 300 300 299 299 299 299 299 299 299 299 299 299 299 299
312 311 311 310 310 310 310 310 311 311 313 313 308 304 305 310 312 312 312 310 308 308 308 308 308 309 308 307 307 307 307 306 306 307 307 306 306 306 305 305 305 305 305 306 305 305 305 305 305 305 305 305 304 303 302 301 301 300 300 300 300 300 300 300 300 300 300 299 299 299 299 298 298 298 298 298 298 298 298 297 297 297 297 297 297 297
314 313 312 311 311 312 311 310 312 313 311 309 306 306 307 310 312 311 309 308 308 309 309 308 308 308 307 307 306 306 305 305 305 305 305 305 305 305 304 304 304 304 303 303 302 302 302 302 301 301 301 300 300 299 299 300 300 300 300 301 301 300 300 300 300 299 299 299 298 298 298 298 298 297 297 297 297 297 297 297 297 297 297 297 297 297
313 314 314 313 313 312 312 312 313 312 309 307 308 310 308 308 310 310 309 309 309 310 310 311 310 309 307 306 306 305 305 305 304 304 304 304 303 303 302 301 301 300 300 299 299 298 298 298 299 299 299 300 300 301 301 301 301 301 301 301 301 300 300 300 299 299 298 298 298 298 298 297 297 297 297 297 297 297 297 297 297 297 297 298 298 298
312 312 313 314 314 313 312 313 313 310 306 306 307 309 308 307 308 310 311 311 311 311 311 311 310 308 307 306 305 304 304 304 303 303 303 302 301 300 299 298 298 298 298 298 298 298 299 299 300 300 301 301 300 301 300 300 300 299 299 299 299 299 299 298 298 298 297 297 297 297 296 296 296 296 296 296 296 296 297 297 298 298 298 299 299 299
309 308 310 313 314 312 311 310 308 306 305 306 307 308 309 308 308 309 310 311 311 311 311 310 310 309 307 306 306 304 303 303 302 300 300 299 298 298 298 298 298 298 298 299 299 299 299 299 299 299 299 298 298 298 298 297 297 297 297 298 297 297 297 297 297 296 296 296 296 296 296 296 296 296 296 296 296 297 297 298 298 298 299 299 300 300
308 307 310 313 313 312 313 312 308 305 305 306 307 308 309 308 308 309 310 311 311 311 310 309 310 309 307 306 306 305 302 301 299 298 298 298 298 298 298 298 298 299 299 299 299 299 299 298 298 298 298 297 297 297 297 297 297 296 296 296 296 296 296 296 296 296 295 295 295 295 295 295 295 295 296 296 296 297 298 298 298 298 299 300 300 300
309 308 311 314 312 312 313 310 304 302 303 305 306 308 308 309 309 309 309 310 310 309 309 308 308 308 306 306 306 305 301 298 298 299 298 298 298 298 298 298 298 298 298 298 298 298 297 297 297 297 297 297 297 297 297 297 296 296 296 296 296 295 295 295 295 295 295 295 295 295 295 295 295 295 295 296 296 297 297 298 298 298 299 299 300 300
309 309 311 313 312 311 310 306 301 303 305 305 305 308 309 309 309 308 308 307 307 308 307 306 306 306 305 304 304 303 300 299 299 299 298 297 297 297 296 297 297 297 297 297 296 296 296 296 296 296 296 296 296 296 296 296 296 296 295 295 295 295 295 295 295 295 295 295 295 295 295 295 295 295 295 296 296 297 297 298 298 298 299 299 299 299
308 309 310 310 310 310 310 308 305 308 310 307 306 308 309 308 308 307 306 306 306 306 307 306 304 303 302 302 301 301 300 299 298 297 297 297 297 297 297 298 298 298 298 297 297 296 296 296 296 296 296 296 295 295 295 295 295 295 295 295 295 294 294 294 294 294 294 295 295 295 295 295 295 295 295 296 296 296 297 297 297 298 298 298 298 299
307 308 308 309 310 310 309 309 307 308 310 309 308 308 308 308 308 307 306 306 306 305 306 306 304 301 300 300 300 300 300 299 298 297 298 298 299 300 300 300 300 299 299 298 297 297 296 296 296 295 295 295 295 295 295 294 294 294 294 294 294 294 294 294 294 294 295 295 295 295 295 295 295 295 295 295 296 296 297 297 297 297 297 297 297 298
Wind_Speed
6 5 6 7 8 9 8 4 2 3 4 6 5 2 2 4 3 1 3 3 1 3 6 6 8 10 11 11 10 10 11 12 14 17 20 22 20 19 20 21 22 22 22 21 22 24 25 26 27 26 26 26 26 26 26 27 27 28 28 28 28 27 27 27 27 27 26 26 26 25 25 24 24 24 23 23 22 23 22 20 18 21 25 22 19 23
4 6 6 4 4 6 6 4 5 5 4 6 5 5 2 2 1 2 2 3 2 3 2 1 6 12 13 12 12 12 9 12 16 17 21 24 23 22 22 22 22 21 21 20 20 21 22 24 25 26 26 27 27 26 26 27 26 27 28 28 28 27 27 28 27 27 27 26 25 25 24 23 23 24 23 23 23 23 22 21 20 23 28 26 22 23
4 5 3 4 5 8 6 3 5 5 4 4 3 4 4 2 2 2 1 3 2 2 1 1 5 11 12 11 13 13 11 14 20 21 21 22 22 23 22 23 23 23 23 23 21 20 20 22 24 26 26 26 25 26 26 26 27 28 28 29 28 27 28 27 27 27 27 26 25 24 24 23 23 24 23 22 23 23 23 24 24 25 27 26 23 22
5 3 3 8 8 9 6 2 5 6 3 2 3 4 3 2 2 2 3 3 2 1 1 1 4 9 9 9 11 12 12 15 21 24 24 24 23 23 23 23 23 24 26 26 24 23 23 24 25 26 26 26 27 28 28 28 29 30 30 29 28 28 27 27 27 26 25 25 25 24 24 24 24 24 22 22 23 24 25 26 26 26 25 23 23 23
2 1 5 9 6 7 7 4 6 6 3 1 2 3 2 4 3 1 4 5 1 1 1 2 5 8 5 7 8 6 6 11 17 20 23 26 26 25 25 25 26 26 27 27 26 26 27 28 28 29 29 29 30 30 30 30 31 31 31 30 29 28 27 27 26 25 25 25 25 25 25 24 25 24 23 23 23 23 24 24 24 24 22 22 23 25
1 1 6 8 3 5 6 6 6 6 5 2 4 3 2 6 6 4 6 5 2 3 1 1 5 5 1 5 7 1 2 6 8 11 16 20 21 22 24 25 24 25 26 28 29 28 29 29 30 30 31 31 32 31 31 31 31 31 31 32 31 29 28 27 26 25 25 25 24 24 24 24 24 24 24 22 20 20 21 21 21 21 21 21 23 24
2 2 3 5 5 6 5 5 4 4 5 3 3 3 4 6 7 8 7 5 2 2 1 1 5 4 1 3 3 1 5 6 5 7 11 14 15 17 18 17 17 19 22 24 26 26 27 27 28 29 30 31 31 31 32 33 32 32 31 31 31 30 28 27 26 25 24 24 24 23 23 22 22 22 21 18 17 18 19 20 21 21 21 21 22 23
3 4 2 3 6 5 5 5 4 6 5 2 1 3 6 8 8 8 7 3 0 1 1 1 2 4 5 3 1 1 5 6 6 7 6 8 11 12 11 11 12 15 17 19 20 21 21 23 23 25 26 28 29 30 32 33 33 32 31 31 30 29 28 27 26 25 24 23 23 23 22 21 21 21 19 16 17 18 19 20 20 21 21 21 22 23
3 4 5 6 6 5 5 2 3 7 3 0 1 2 5 6 6 6 5 2 1 1 4 2 2 4 5 2 1 1 4 5 7 6 4 4 7 7 6 7 9 12 14 16 18 18 19 20 21 21 22 23 23 24 25 26 27 27 27 28 30 30 29 28 26 25 24 24 23 23 22 21 20 19 18 17 18 19 20 21 21 21 22 22 23 24
1 3 4 4 4 4 2 3 1 2 1 4 5 5 6 5 5 4 2 3 2 3 5 2 2 4 5 2 2 0 2 6 6 3 2 4 5 3 2 3 5 8 11 12 14 17 20 20 19 18 18 17 16 15 16 17 19 20 21 24 28 29 28 27 25 24 23 24 24 23 22 21 20 18 18 18 19 19 19 20 21 21 22 22 22 23
1 2 2 0 1 3 5 5 4 2 5 10 7 7 8 4 3 2 1 1 2 4 2 2 2 3 4 2 3 2 2 3 3 1 3 4 4 3 3 3 1 3 5 6 9 14 17 18 16 15 14 13 12 12 12 13 14 15 17 20 25 26 26 24 23 22 22 23 23 22 21 20 19 17 18 19 19 18 18 18 18 18 19 20 20 21
2 3 2 1 3 6 5 6 7 3 6 6 3 6 7 3 1 2 1 0 4 4 1 2 2 3 5 3 1 1 2 2 2 2 5 4 3 2 3 4 3 2 4 6 8 10 13 13 12 12 11 10 10 11 11 12 12 13 15 18 21 22 21 20 20 20 20 20 20 19 19 18 17 17 17 18 17 16 16 16 16 16 17 18 18 19
3 2 1 2 4 4 3 5 6 2 2 2 4 8 6 3 3 3 2 2 4 2 2 1 1 3 7 6 5 7 6 4 4 5 4 3 5 4 3 3 3 5 7 9 10 9 10 10 10 9 9 9 9 10 11 12 12 13 14 16 17 17 17 17 16 17 17 17 17 16 16 16 15 16 16 16 15 14 14 14 14 16 16 16 17 18
3 1 2 3 3 6 4 5 5 4 5 5 7 7 6 5 4 5 3 1 3 0 2 0 1 3 5 5 7 10 6 1 5 10 11 11 13 11 6 1 3 6 8 10 10 10 9 9 9 9 9 9 10 10 10 11 11 12 12 13 13 13 13 13 13 13 14 14 14 14 14 14 14 15 14 13 13 12 13 13 13 14 14 15 16 16
5 3 4 3 2 4 4 2 1 4 5 3 1 2 4 4 3 4 3 2 2 2 2 1 2 3 2 0 3 7 7 7 10 12 13 14 15 12 7 2 3 6 8 9 10 10 10 9 9 10 10 10 10 10 10 10 10 10 11 11 11 11 11 11 11 12 12 12 13 14 13 13 13 13 12 12 12 12 12 12 13 13 14 15 15 15
3 1 1 1 1 2 2 2 2 4 4 0 1 1 2 2 2 2 1 0 1 1 2 2 3 3 2 4 4 5 6 8 9 10 11 11 10 10 7 4 5 6 7 7 8 8 9 9 9 9 9 9 10 10 11 11 11 11 12 12 12 12 11 11 11 12 13 13 13 13 13 12 12 12 12 12 12 12 12 13 14 15 15 15 15 15
2 1 2 2 1 2 1 1 2 1 3 2 2 3 2 1 4 4 1 1 1 3 2 2 3 2 3 5 3 1 2 3 3 5 8 8 8 9 7 7 7 6 7 7 6 6 7 8 8 8 8 8 8 9 10 11 12 12 12 11 10 10 10 10 11 12 13 13 12 12 12 12 12 12 12 12 12 12 13 15 16 16 17 17 17 17
3 3 2 1 2 2 3 1 3 4 2 2 3 5 3 1 1 2 1 1 0 3 2 1 4 3 1 3 1 2 2 3 2 3 4 5 6 7 8 9 8 6 7 6 5 5 6 6 7 7 6 7 7 8 9 10 11 10 9 7 7 8 9 10 10 11 12 12 11 11 11 12 13 13 13 12 12 12 14 15 17 18 19 19 20 20
2 3 1 2 0 1 3 0 3 3 4 1 2 3 3 1 2 2 2 2 2 3 2 1 2 3 4 4 1 1 3 2 2 2 2 4 7 8 10 11 9 6 5 4 3 3 5 7 7 6 6 6 7 8 9 9 10 8 7 5 5 6 7 8 9 10 10 11 10 11 12 12 13 13 13 13 13 14 15 16 17 19 20 22 22 23
1 1 2 1 1 0 1 2 5 4 3 2 2 2 0 1 2 2 2 1 3 3 2 1 1 3 5 5 3 3 3 1 2 3 3 6 9 9 10 11 9 6 6 6 6 6 7 8 7 6 6 5 6 7 7 8 8 7 6 5 5 5 5 6 7 8 9 10 11 11 12 12 13 13 13 14 15 16 17 18 19 20 22 23 25 25
1 1 3 2 1 2 2 2 3 5 4 3 4 5 3 1 1 1 1 1 1 2 2 2 2 2 2 3 5 5 3 2 2 2 3 8 12 10 10 12 12 13 14 14 13 13 12 11 10 8 7 5 5 5 5 6 5 5 5 5 5 5 6 7 8 8 10 11 12 13 13 13 14 14 15 16 17 18 19 19 21 22 24 25 26 27
1 1 4 4 2 3 2 0 2 1 0 1 3 5 5 4 3 4 3 1 0 1 1 2 3 3 1 1 3 2 1 2 2 1 3 9 15 14 14 18 19 20 20 18 17 17 16 15 13 12 10 9 8 6 5 4 3 3 4 4 5 6 8 9 11 12 13 14 15 15 15 15 15 16 17 18 19 20 20 21 22 24 26 27 27 28
2 3 4 3 2 2 2 1 1 2 1 1 2 2 3 3 3 5 5 3 3 1 1 1 2 3 0 1 1 1 2 3 3 4 4 9 16 19 20 22 21 20 19 18 17 16 14 12 11 9 8 7 7 6 4 3 2 2 4 5 7 9 11 12 13 15 16 17 17 17 16 16 16 17 19 20 21 21 22 23 25 27 28 29 30 30
3 3 3 3 1 1 2 0 1 0 1 2 3 2 2 2 2 1 2 3 4 3 3 2 3 4 0 1 2 4 6 8 7 7 7 9 17 22 23 22 21 20 19 17 15 13 11 9 7 6 4 3 2 1 0 1 3 4 7 9 10 12 13 15 16 17 17 18 18 17 17 17 18 19 21 22 23 24 25 27 28 29 31 31 31 31
6 3 4 4 2 1 1 2 2 2 3 4 2 2 2 2 4 3 1 2 2 4 5 4 6 4 0 1 1 2 4 7 8 8 9 11 18 23 23 22 21 19 16 13 10 8 7 7 6 5 4 3 3 2 3 5 7 9 10 11 12 13 14 16 17 18 19 19 19 18 19 19 20 22 23 25 26 28 29 30 31 31 32 32 32 31
7 3 6 7 6 5 5 6 6 5 3 3 2 3 5 7 7 4 2 2 4 5 5 6 7 2 1 1 1 2 2 4 6 9 11 15 20 23 24 22 18 14 11 8 6 5 3 3 3 3 4 5 5 4 5 7 9 11 13 13 13 13 14 14 15 17 18 19 20 21 22 22 23 24 25 26 27 29 30 30 30 30 31 30 29 27
3 1 6 9 9 9 10 11 9 6 6 7 8 8 9 10 8 4 3 3 5 4 4 10 9 2 0 3 4 4 4 4 5 9 15 19 22 24 23 19 16 12 9 6 5 3 2 1 2 4 5 6 6 6 7 9 11 13 14 14 14 13 14 14 14 15 17 20 21 23 24 25 25 25 25 25 26 27 27 28 28 27 26 25 23 22
2 3 8 10 11 9 7 6 6 8 10 13 13 10 9 9 8 7 7 7 4 5 5 12 10 6 5 6 6 5 4 3 5 12 19 22 24 24 21 18 16 14 12 9 6 2 1 3 4 5 6 8 9 10 11 12 14 15 15 15 14 14 15 15 15 16 17 20 22 24 24 24 23 22 22 22 23 23 23 23 22 20 19 18 16 16
2 7 7 7 11 8 0 3 5 8 8 7 10 12 12 12 12 12 13 10 8 7 13 14 12 12 10 7 6 6 7 9 11 17 21 22 23 24 21 18 16 14 13 13 12 8 2 3 5 5 5 7 10 13 14 15 16 16 16 16 15 15 15 15 15 15 16 18 20 21 21 20 20 19 19 19 19 18 17 15 14 13 12 12 12 12
3 6 4 6 11 8 2 3 4 6 5 3 6 10 12 14 15 16 17 15 12 12 16 11 7 9 9 8 7 9 12 13 12 13 16 19 23 24 23 20 18 16 13 10 11 8 3 6 8 7 7 9 11 13 14 14 14 15 16 16 15 14 14 14 13 13 14 15 16 16 16 16 16 16 15 14 13 12 11 10 10 11 11 12 13 13
3 4 3 5 7 6 3 3 1 3 5 4 3 5 9 11 13 15 16 15 13 14 16 9 4 7 8 10 10 10 10 8 8 11 14 19 23 23 23 23 21 18 14 11 9 7 7 11 12 11 12 13 13 13 13 13 13 13 14 13 13 12 12 12 12 12 11 11 11 11 11 11 11 10 10 9 9 9 10 11 12 13 13 14 14 15
3 2 3 4 5 5 2 4 4 4 2 2 3 6 11 11 11 13 15 14 13 15 16 12 9 8 6 11 11 11 8 7 10 15 16 19 21 22 24 26 24 20 17 14 12 12 15 16 15 15 15 15 14 13 12 11 11 11 11 11 10 11 11 11 10 9 9 8 8 8 8 8 8 8 8 8 9 10 11 12 13 14 14 14 15 16
5 5 3 5 8 5 0 3 6 6 2 4 6 11 16 15 15 14 12 12 13 13 13 11 9 4 7 11 9 8 8 10 15 21 22 22 22 23 24 24 23 22 22 23 23 23 21 18 16 16 17 17 15 13 12 10 9 9 9 10 10 10 9 9 8 8 8 8 7 8 8 8 8 8 8 9 10 11 12 13 14 14 15 15 16 17
6 6 4 4 6 2 1 3 6 4 7 9 7 12 17 16 15 13 11 12 12 10 9 8 5 4 7 9 11 10 12 19 24 27 27 27 26 26 27 27 26 27 27 26 25 23 20 18 17 18 18 17 15 14 12 11 10 10 10 10 9 9 8 8 8 8 8 8 7 8 8 8 9 9 10 11 11 12 13 14 14 15 16 16 16 17
8 6 3 2 2 1 2 4 5 7 10 6 1 6 13 14 13 13 14 15 14 12 11 12 10 6 9 14 18 20 23 27 29 28 29 29 30 30 31 31 30 28 26 24 22 20 18 18 18 19 19 18 17 16 14 13 12 12 11 11 10 10 9 8 8 7 7 7 7 8 8 9 10 11 12 12 13 13 14 14 15 16 16 16 17 18
8 6 3 1 2 3 3 6 8 6 4 1 2 1 6 9 10 12 13 13 12 11 11 13 16 13 11 16 20 21 21 22 22 24 28 28 28 29 29 28 26 24 23 21 19 18 18 18 18 18 18 17 17 16 15 13 13 12 11 11 10 9 8 8 7 7 7 7 8 9 10 10 11 12 13 13 13 13 14 15 15 17 18 18 18 20
6 6 4 4 3 2 3 6 4 4 3 5 4 3 7 9 10 11 10 10 10 13 14 14 16 15 11 14 18 19 16 11 10 18 27 27 25 26 25 24 23 22 20 20 19 19 18 18 17 16 15 14 13 13 12 11 11 11 10 9 8 7 7 6 6 6 7 8 9 10 10 11 11 11 12 13 13 14 15 16 17 19 20 22 22 23
3 3 4 5 3 2 3 3 2 4 9 9 4 4 9 13 14 13 9 8 9 18 23 19 15 14 11 11 15 16 11 5 5 14 24 26 25 25 23 22 22 22 21 20 19 18 17 16 15 13 12 11 10 10 10 10 9 9 9 8 6 5 5 5 6 6 7 8 9 9 10 10 11 12 14 15 17 18 19 20 21 23 25 26 28 28
2 1 2 4 3 3 4 4 5 8 10 5 5 6 11 17 15 11 6 9 7 16 27 23 13 13 14 13 18 17 9 5 7 11 17 20 21 22 20 19 19 18 18 17 15 14 14 13 12 12 10 10 10 9 9 8 7 7 6 5 5 4 4 5 5 6 7 8 9 10 12 13 15 17 18 20 21 23 24 25 27 28 30 31 32 33
3 2 3 5 5 5 5 5 5 5 5 3 4 6 13 21 19 12 5 10 4 14 25 25 19 21 24 19 19 15 8 9 8 9 15 18 17 16 14 13 15 15 14 14 13 13 13 12 12 12 11 11 10 8 7 6 5 4 3 3 3 3 4 5 6 7 8 10 12 14 16 18 19 21 23 24 26 27 29 30 31 32 33 34 35 36
3 2 4 7 6 6 7 5 4 4 4 4 3 9 21 23 14 8 7 5 7 14 21 24 27 29 26 21 20 15 15 16 11 9 15 18 16 16 15 14 16 15 14 15 14 14 14 13 12 11 10 10 8 6 5 4 3 2 2 3 4 5 6 7 9 11 13 15 16 18 20 21 23 24 26 27 29 30 31 32 34 35 36 37 38 38
5 3 4 5 5 4 4 4 4 5 3 4 7 14 21 14 6 7 5 3 7 10 13 19 25 25 19 20 23 20 16 15 12 12 18 19 19 19 19 18 18 18 17 16 15 14 13 12 11 10 9 8 7 5 3 1 0 2 4 5 6 8 10 12 14 15 17 18 19 21 22 23 24 26 27 29 30 31 32 32 34 35 36 37 38 39
7 6 5 5 5 3 2 5 6 6 3 15 17 10 9 5 2 4 6 4 4 6 7 12 18 18 16 19 22 19 15 15 16 19 22 22 21 22 21 20 20 19 18 17 15 14 13 11 11 10 8 7 6 4 2 2 2 5 7 9 10 12 14 16 18 19 20 21 22 23 24 25 26 27 29 30 31 32 33 33 33 34 35 36 37 38
7 7 5 4 5 5 5 8 5 2 8 19 14 5 10 10 1 2 6 5 4 6 8 10 14 17 17 17 19 20 19 20 23 24 25 25 24 23 23 21 20 19 18 16 14 13 12 10 9 8 6 4 2 1 3 5 7 10 12 13 15 17 18 19 21 22 22 23 24 25 26 27 27 28 29 31 32 33 33 34 34 34 34 35 35 36
7 6 4 4 5 4 4 5 3 4 11 14 5 1 12 17 8 2 5 5 5 7 9 10 13 16 16 16 19 23 24 25 27 27 27 26 25 23 22 20 19 17 16 13 12 10 8 6 4 3 2 2 4 6 8 10 12 14 16 17 19 20 21 22 23 23 24 25 25 26 27 27 28 28 29 30 31 33 34 34 34 35 34 34 34 35
2 2 3 3 3 1 3 4 3 5 9 11 7 3 9 16 15 11 8 8 9 9 9 9 12 15 16 18 22 26 28 29 29 28 26 26 24 22 20 18 16 14 12 10 7 5 4 2 2 3 4 6 8 9 11 13 14 16 18 20 21 22 23 23 24 24 25 25 26 27 28 29 29 29 30 30 31 31 32 33 34 35 35 35 34 35
1 3 3 2 3 4 5 5 4 4 7 10 10 8 8 13 17 15 12 11 11 11 10 11 13 16 19 21 23 27 30 30 30 28 25 23 22 19 17 15 12 10 8 6 3 2 1 2 4 6 7 8 10 11 13 15 16 18 19 21 21 22 23 24 24 25 26 27 28 29 30 31 31 32 32 32 31 32 32 33 33 35 35 35 34 34
3 6 3 2 4 4 3 1 2 3 7 9 10 11 11 13 17 17 17 17 15 13 13 14 16 20 23 24 25 29 31 30 28 26 23 21 18 16 14 11 9 7 5 2 1 2 3 5 6 8 10 11 12 13 15 17 18 19 19 20 21 22 23 24 25 27 28 28 29 30 31 32 32 33 33 33 33 33 33 33 33 34 34 33 33 34
6 7 5 3 4 1 3 2 1 1 4 9 14 16 16 17 19 20 19 17 16 16 16 18 20 22 25 27 29 31 32 29 25 22 21 18 16 13 11 8 6 4 2 2 3 4 6 8 10 12 13 13 14 15 16 18 19 19 19 20 22 23 24 25 26 28 29 30 30 31 32 32 32 33 34 34 34 33 33 33 32 33 33 32 31 32
7 5 3 3 4 3 4 6 9 5 3 9 17 21 21 21 20 20 19 19 19 20 20 22 25 25 27 28 29 29 30 28 23 20 18 16 13 11 8 6 3 1 2 4 5 7 9 11 13 14 14 14 14 16 17 18 19 20 21 22 23 24 26 27 28 28 29 29 30 31 31 32 32 32 33 33 34 34 34 33 32 31 32 32 31 31
9 7 6 6 6 7 7 13 19 15 8 9 14 18 20 22 22 21 22 23 22 22 22 24 27 29 30 28 26 25 26 26 23 20 17 14 11 9 6 3 2 3 5 7 8 10 11 12 13 14 14 14 15 16 18 19 20 21 22 23 24 25 26 27 28 29 29 29 29 29 30 31 32 32 33 33 33 34 35 35 34 32 31 32 32 33
Wind_Direction
154 160 188 191 181 180 183 190 88 87 153 154 142 137 158 172 172 119 92 50 5 219 225 232 253 267 264 264 264 261 266 267 265 266 266 263 258 251 247 247 250 248 245 241 237 235 234 236 237 238 239 238 237 236 236 236 235 236 238 240 240 241 242 243 244 245 247 248 247 248 250 253 255 255 256 256 257 263 265 267 264 261 267 264 252 249
169 194 198 180 150 147 143 116 95 94 117 143 163 164 172 218 140 81 83 71 51 239 223 207 267 263 259 263 265 258 253 251 253 254 258 261 260 257 252 249 249 248 246 243 238 234 233 234 235 236 236 235 236 236 236 236 235 236 236 238 239 240 241 241 243 245 246 248 250 252 254 256 258 257 259 259 260 265 268 272 268 259 262 264 255 245
194 211 176 120 106 98 90 103 115 96 108 138 161 167 178 182 126 104 110 83 63 243 236 71 264 264 260 262 262 250 239 244 249 248 251 255 255 254 251 249 249 247 247 245 240 236 233 232 233 233 233 234 236 237 238 238 237 237 236 237 237 237 239 240 242 244 246 248 250 253 254 254 254 252 253 253 254 256 258 259 258 255 255 255 255 250
189 218 118 130 139 125 106 120 122 108 119 135 141 165 171 149 165 194 152 123 54 343 317 312 270 275 263 253 254 245 240 246 250 249 249 248 248 249 248 247 247 246 247 247 244 240 237 235 235 235 235 237 240 241 241 240 239 238 237 237 237 237 239 241 242 242 244 247 248 249 250 250 252 251 248 246 245 246 247 248 249 253 253 252 256 258
161 7 128 141 156 148 136 157 163 162 178 214 196 172 136 163 189 11 115 132 119 162 315 302 271 271 249 239 245 237 244 250 250 251 251 248 247 248 247 246 246 246 248 249 247 244 241 240 241 242 243 244 245 245 244 243 242 241 240 239 238 238 239 239 241 241 241 243 244 244 246 246 248 250 249 246 245 245 245 246 249 255 259 259 259 260
90 45 151 143 145 153 147 169 190 196 185 202 228 195 141 167 157 102 126 144 182 201 149 339 261 256 177 234 238 226 314 257 243 246 249 249 247 247 248 247 247 249 250 251 250 247 245 244 244 245 247 248 248 247 246 244 242 240 240 239 238 237 237 237 238 238 237 238 241 242 244 246 249 252 254 254 257 258 258 259 259 259 260 261 261 261
92 105 153 145 144 147 161 183 194 204 188 192 221 160 123 141 136 134 155 171 210 195 95 324 251 256 279 235 209 360 299 272 248 238 241 245 242 239 242 243 243 245 247 249 251 251 250 248 245 245 245 247 248 248 246 242 239 237 236 235 234 233 233 234 235 234 234 236 239 242 244 248 251 255 258 261 262 261 260 261 259 258 258 257 259 260
109 127 140 135 138 147 173 186 188 194 187 178 198 132 129 138 142 149 158 175 305 85 141 144 279 271 269 247 118 340 277 269 257 237 228 233 228 223 228 234 238 241 244 245 247 247 245 242 239 237 238 241 244 246 244 240 236 235 235 234 231 229 229 230 231 231 232 235 238 242 245 247 249 253 257 257 252 249 249 250 249 250 252 250 250 252
94 162 174 148 148 172 182 178 178 182 180 298 205 114 122 125 126 140 149 139 66 252 206 144 25 266 256 234 123 329 272 258 251 226 192 192 197 199 214 233 243 246 245 242 241 238 232 230 231 230 232 237 241 244 242 237 234 234 234 232 227 224 224 226 228 229 230 233 237 240 242 244 247 250 253 252 248 245 244 244 245 245 246 245 245 245
30 194 187 163 171 175 134 32 333 213 94 144 153 104 95 92 87 107 131 127 123 247 222 126 29 263 259 230 166 23 267 249 248 213 166 185 174 158 175 226 252 254 250 244 237 229 222 221 223 223 225 228 231 233 232 229 230 232 231 227 223 220 221 224 226 228 230 232 234 237 240 243 246 249 251 251 250 248 246 245 245 245 245 245 245 245
355 133 134 54 156 129 106 66 23 357 121 142 152 112 99 84 69 86 46 90 188 240 215 75 3 277 270 252 193 201 242 246 258 151 157 190 175 126 81 50 341 259 239 226 214 209 208 209 210 212 216 218 216 214 214 216 219 223 222 219 216 216 218 222 225 228 229 230 232 235 239 243 246 249 250 251 251 250 249 248 248 247 246 245 245 245
67 111 111 72 117 124 116 78 46 54 134 145 168 133 116 95 95 118 82 181 228 226 107 47 329 253 241 245 177 270 280 249 252 159 147 167 186 148 56 38 46 90 130 151 165 177 187 194 196 201 204 201 199 199 200 203 205 208 209 208 210 212 216 220 223 225 226 227 231 234 239 243 245 247 248 249 250 249 249 250 251 250 249 248 248 248
112 101 31 92 149 177 160 101 81 83 201 213 169 155 149 137 155 194 180 208 234 224 64 28 294 242 244 260 275 273 263 222 235 242 214 234 267 283 343 24 75 97 111 126 138 150 163 173 176 180 182 179 184 190 192 196 197 199 200 201 204 208 211 215 217 220 222 226 230 233 237 239 239 240 242 245 247 249 252 253 254 255 256 257 257 257
144 146 171 139 179 223 214 142 142 184 201 191 168 168 173 150 164 197 179 242 257 231 53 307 262 249 253 269 256 255 268 236 239 253 257 266 276 285 300 324 108 107 114 123 131 139 147 155 157 158 164 167 172 177 181 186 188 190 192 194 197 199 201 205 208 213 217 220 222 224 226 227 229 232 236 242 247 250 254 257 260 264 267 269 269 270
177 191 179 158 158 199 214 224 170 144 155 190 174 159 182 169 185 198 177 211 210 105 88 188 241 232 214 67 233 253 292 291 259 255 261 267 274 280 277 227 143 121 125 130 135 139 143 149 153 157 163 167 169 171 171 173 175 177 178 178 179 180 183 188 193 200 205 208 212 214 217 220 226 232 237 243 248 251 255 259 263 265 267 270 273 275
189 193 76 9 360 164 188 288 343 101 123 197 5 89 204 182 132 122 72 61 100 82 156 192 244 251 270 293 269 264 285 278 261 254 255 259 262 260 243 194 166 143 137 143 146 146 148 153 158 162 166 168 168 165 162 160 161 162 163 163 165 169 175 182 188 195 199 204 209 213 218 224 230 236 242 249 254 258 261 263 264 265 267 270 273 276
172 131 8 2 59 46 12 322 337 83 145 151 154 179 198 67 98 116 110 48 356 256 193 175 250 270 297 281 280 301 264 256 246 238 242 248 244 234 210 179 174 161 152 159 164 167 166 164 165 166 168 170 167 161 155 154 155 156 159 163 169 176 183 189 195 199 203 207 212 217 222 228 234 238 244 251 255 260 267 272 277 280 280 280 280 279
165 115 9 341 97 50 358 60 58 21 38 147 176 166 142 54 61 135 172 103 154 247 209 173 246 265 249 246 337 8 229 215 212 230 242 240 225 208 183 175 179 172 169 180 190 197 195 183 175 170 170 170 166 163 157 154 156 157 160 168 178 187 195 200 205 208 211 216 219 224 229 232 237 241 246 251 255 260 268 277 284 286 286 285 282 279
145 106 77 343 49 51 349 119 126 40 19 14 178 140 132 197 198 173 188 168 182 233 242 203 256 264 215 212 285 286 203 208 212 199 211 209 197 182 168 171 180 177 177 191 195 187 186 184 181 175 176 177 172 170 166 162 162 165 172 179 186 196 204 209 215 219 221 225 227 232 236 240 245 249 254 258 261 266 270 275 279 281 282 283 281 279
113 135 145 44 339 345 332 233 186 158 71 44 135 137 30 280 202 178 164 177 204 212 238 251 244 236 215 209 221 204 178 173 171 166 189 195 183 171 160 165 174 166 148 138 133 132 142 156 165 168 171 174 171 169 168 167 169 176 186 195 201 211 217 222 228 231 234 236 237 241 244 249 254 257 262 266 268 271 273 275 276 277 279 279 278 278
114 195 147 100 332 219 186 213 213 179 147 140 166 170 178 126 61 211 130 54 226 191 200 240 244 240 220 201 210 205 179 169 162 144 180 186 179 170 159 156 149 137 126 120 119 117 119 124 127 130 132 133 144 153 159 168 177 188 199 210 217 226 234 240 244 245 245 246 246 249 252 255 260 264 267 269 269 271 273 275 277 278 278 278 278 278
131 144 136 129 179 196 182 337 311 279 140 163 189 184 175 147 128 186 190 111 16 211 178 205 264 269 226 183 212 214 189 198 199 194 188 183 180 169 152 144 137 129 123 118 117 115 112 113 112 111 111 110 115 120 127 142 165 196 214 226 232 241 247 249 252 250 249 249 248 249 252 256 261 265 266 268 269 271 275 277 278 279 279 278 277 277
82 99 115 121 180 220 332 3 201 263 310 310 257 212 169 162 169 195 207 179 139 118 106 115 285 282 69 113 221 263 269 256 251 237 207 176 167 156 145 139 133 127 124 120 119 117 113 112 110 107 105 104 104 102 104 112 133 197 218 229 237 247 253 254 255 253 250 248 247 247 250 256 261 264 266 268 270 273 275 277 277 278 278 278 278 277
107 104 114 97 76 356 326 227 140 157 252 241 237 201 180 201 187 183 207 156 146 161 155 158 252 257 116 106 225 254 262 267 263 237 210 171 158 151 144 136 129 124 121 117 115 112 111 113 114 117 115 112 116 113 162 240 251 240 235 240 246 253 259 261 262 261 257 251 247 248 251 257 261 263 266 268 270 271 272 273 274 275 276 277 277 277
175 150 126 118 116 137 207 210 187 188 212 224 212 157 162 113 89 91 115 123 197 198 174 200 242 242 272 56 198 223 252 267 259 229 200 174 161 153 144 137 134 130 124 118 112 104 106 113 121 137 149 163 184 209 235 241 244 243 243 246 252 257 261 264 265 266 265 259 255 255 256 257 259 261 265 267 268 269 269 271 273 273 274 275 276 278
176 176 154 159 166 171 189 201 200 192 185 197 161 150 179 166 151 164 147 155 218 192 161 212 236 234 35 303 214 177 209 252 237 213 196 180 168 160 152 147 145 141 131 122 107 89 91 112 139 169 186 195 201 213 231 236 237 241 243 245 250 255 258 262 265 268 269 267 265 264 261 260 259 261 265 266 267 270 271 273 273 273 274 275 278 281
145 223 186 198 197 190 201 204 190 149 140 186 195 177 183 185 174 157 129 177 202 151 169 224 232 222 157 219 216 201 199 215 205 194 193 187 177 170 164 156 151 149 147 137 113 84 41 302 240 223 222 221 226 235 241 242 240 240 244 246 251 257 260 263 265 267 269 269 269 267 265 264 265 266 268 270 271 273 274 274 274 275 276 279 282 284
91 207 200 218 222 217 214 199 170 153 171 197 195 175 173 177 167 173 200 204 148 119 225 235 227 227 220 202 210 207 183 200 211 195 192 190 185 182 177 167 162 169 180 186 185 175 340 300 256 243 241 235 241 249 252 252 249 245 246 248 251 257 261 263 264 264 265 265 265 266 267 268 270 272 274 275 275 275 274 274 274 276 278 280 282 284
130 203 200 209 223 233 159 114 169 182 193 202 186 176 173 169 170 189 211 208 157 175 239 237 216 218 212 189 210 217 191 197 203 197 194 193 192 194 193 185 180 190 205 211 214 217 256 302 275 272 267 248 244 249 251 253 252 249 248 249 252 258 262 265 267 267 266 264 263 263 265 268 270 273 274 274 273 271 270 270 271 274 277 280 284 287
169 196 181 184 220 232 122 113 194 187 184 188 184 183 175 173 184 196 210 212 193 210 239 235 209 222 205 180 208 221 206 202 197 196 202 204 204 206 208 208 208 215 229 242 239 236 287 318 298 295 292 276 262 257 258 258 255 252 250 251 256 262 267 271 274 273 269 264 261 260 262 263 264 265 263 262 262 261 263 268 274 280 284 288 292 294
200 197 140 148 217 228 139 113 143 172 185 178 157 171 174 180 197 206 217 218 207 225 242 237 249 259 210 185 212 224 206 194 195 204 210 213 215 219 223 228 233 239 250 260 249 256 313 312 298 297 295 287 279 271 266 261 256 252 251 254 259 264 271 277 278 275 267 261 259 257 256 254 251 248 246 248 255 263 273 281 286 290 293 295 298 300
189 196 101 132 206 222 158 141 130 97 98 140 153 181 181 185 200 209 217 214 204 222 235 236 253 259 186 169 206 232 223 210 220 225 226 227 228 231 234 240 247 255 266 273 275 295 307 296 287 290 289 288 285 276 268 260 255 255 255 260 265 268 274 277 272 265 257 251 248 243 238 236 235 239 247 257 270 278 283 289 291 294 297 299 302 304
170 165 130 170 201 213 54 144 137 108 112 214 214 195 187 193 204 206 215 217 210 214 218 220 232 218 141 152 185 222 231 228 233 237 240 242 241 241 244 249 258 268 279 288 293 297 293 279 274 280 281 282 281 275 271 266 262 262 263 267 270 270 270 264 254 247 241 238 235 231 231 237 245 258 267 274 281 285 289 293 296 299 302 305 307 309
169 173 163 179 196 201 85 130 132 156 219 229 218 192 189 196 200 202 213 216 210 213 225 238 241 140 133 161 176 188 209 218 225 231 236 242 245 248 253 258 267 274 279 284 284 280 272 265 268 272 271 270 270 268 266 264 261 262 262 263 264 260 254 247 241 238 234 232 235 238 245 257 266 274 281 285 289 293 296 300 302 304 307 309 311 311
169 174 170 174 173 128 121 145 166 213 228 232 245 192 190 191 191 200 219 220 208 208 226 246 250 210 175 183 188 194 207 215 222 228 233 238 243 249 255 260 265 270 272 272 270 265 262 263 266 265 262 260 260 261 261 260 260 259 255 250 247 241 236 233 231 232 236 240 248 256 264 273 280 285 290 294 297 300 303 305 307 308 309 311 313 313
169 165 145 131 134 120 142 180 199 231 246 220 345 302 181 184 187 200 227 231 211 205 219 233 240 231 197 189 196 203 214 222 229 234 235 238 244 248 252 257 260 260 260 260 260 260 262 263 262 260 257 256 256 256 257 256 252 247 238 230 226 222 220 222 225 235 247 257 266 275 280 285 290 294 297 300 303 306 309 310 312 312 312 313 314 313
168 163 161 178 184 153 169 199 229 324 303 222 220 199 177 177 173 184 223 238 208 201 211 221 235 236 209 193 203 210 217 230 247 248 241 239 242 244 245 248 250 250 251 252 255 257 258 257 255 253 250 248 246 244 240 236 230 224 218 214 210 208 213 222 233 249 263 274 282 288 293 297 300 303 306 309 311 312 313 313 313 312 311 310 310 309
166 172 176 192 201 137 154 200 229 260 248 231 192 162 184 186 177 175 205 240 214 201 206 213 228 231 213 193 193 194 200 218 252 250 243 238 238 238 238 239 241 245 248 247 248 246 243 242 240 237 233 227 221 215 209 207 206 205 205 206 207 214 230 244 258 271 282 292 296 301 306 309 311 312 312 313 312 311 311 309 308 307 306 305 304 304
105 79 162 191 191 153 176 205 195 216 243 228 137 160 185 179 161 144 188 250 231 198 206 213 218 225 227 208 181 169 167 209 232 235 234 233 234 234 234 234 232 233 234 231 227 223 220 219 215 210 205 201 198 192 190 192 196 200 206 215 223 241 260 272 286 296 303 308 311 313 313 313 313 312 311 311 310 309 308 306 305 304 303 303 303 302
121 127 182 198 197 179 192 213 215 237 253 200 163 180 167 156 140 126 207 252 201 178 203 209 208 223 232 212 177 166 184 219 229 226 220 222 222 216 213 209 202 199 200 196 194 195 194 191 190 190 188 188 187 184 187 196 207 217 234 256 267 288 303 310 317 320 319 319 318 316 314 313 312 312 311 310 309 308 307 306 305 304 303 302 302 301
152 170 196 204 205 190 192 215 253 261 229 209 203 164 150 146 147 170 222 237 140 166 199 205 207 221 225 197 178 189 213 222 228 215 200 199 194 181 174 171 170 169 169 171 171 174 175 175 176 177 179 180 179 179 187 200 224 254 297 315 317 325 328 328 329 327 326 324 321 319 317 314 313 312 311 310 309 307 307 306 304 304 303 302 302 301
178 178 194 205 201 187 188 215 255 269 227 147 136 151 152 151 185 210 197 128 138 169 192 199 208 221 218 197 197 206 210 210 209 186 176 176 172 163 157 156 157 157 157 158 157 158 162 164 165 165 166 163 160 159 158 150 305 334 344 339 333 333 332 330 330 328 326 325 321 318 316 312 310 309 307 307 306 304 304 303 301 301 300 300 300 299
173 166 182 197 183 160 172 200 230 272 175 134 127 141 174 191 249 191 166 141 150 173 182 195 209 218 214 204 204 203 194 183 176 168 163 161 159 155 152 153 153 152 152 151 149 149 149 151 153 150 145 141 137 130 106 45 350 336 335 331 329 329 328 327 326 324 322 321 318 315 312 308 306 305 304 304 304 303 302 301 300 300 299 300 300 299
175 174 183 203 185 168 191 203 213 262 158 151 140 152 205 209 236 108 164 168 168 185 192 198 206 212 213 207 195 186 178 167 161 159 157 154 154 153 151 150 149 147 146 145 144 142 139 140 141 136 128 122 104 30 343 333 327 324 324 323 322 323 323 322 320 318 317 315 312 310 307 305 304 303 303 304 304 303 303 302 301 300 300 301 302 301
195 184 169 190 191 180 211 220 198 144 164 175 176 172 195 204 219 216 197 213 226 218 211 205 204 204 206 200 183 170 164 160 157 156 154 152 152 150 148 147 147 146 144 141 138 136 134 133 126 104 63 3 342 331 326 325 323 322 322 322 321 321 320 318 315 313 312 310 308 307 306 305 305 305 305 305 305 304 303 302 301 301 301 302 304 304
203 159 114 152 175 214 261 234 185 153 172 191 212 218 198 207 215 223 235 246 243 229 211 201 202 197 191 188 177 163 158 157 154 152 151 150 148 147 146 146 145 143 142 138 131 124 118 93 37 8 352 342 335 329 327 326 324 323 322 320 319 318 316 314 313 311 310 309 309 309 308 308 307 306 306 305 304 303 302 302 302 302 302 304 305 305
202 162 130 131 157 189 224 212 160 169 192 196 204 211 205 204 207 217 231 235 230 220 199 187 189 183 178 180 176 163 157 156 153 150 150 150 148 147 146 144 142 141 139 135 124 98 45 360 343 334 331 330 327 324 323 321 319 319 317 315 314 313 311 310 310 309 309 309 308 308 308 307 306 306 305 305 304 303 303 303 303 303 303 304 304 304
188 165 156 182 175 183 227 244 109 190 210 210 213 211 201 201 206 211 218 219 214 204 186 174 174 172 169 172 173 164 156 155 156 154 152 151 151 149 146 144 142 140 137 129 35 342 334 327 322 320 320 320 319 317 316 314 311 309 308 307 306 305 304 304 305 305 306 306 306 305 305 305 305 305 305 305 304 303 302 302 301 300 301 302 304 304
156 161 171 182 173 209 291 284 158 215 223 218 220 216 209 210 211 208 206 204 195 185 173 164 165 169 168 168 168 164 157 156 158 157 154 153 150 145 143 141 133 119 90 16 348 335 326 320 317 315 314 313 312 310 306 303 300 299 298 299 299 299 300 301 301 303 304 304 304 304 304 304 305 305 305 304 303 302 301 300 299 299 299 299 301 301
155 167 170 145 165 222 239 190 179 193 229 220 219 217 212 212 212 204 195 188 183 181 176 166 162 163 164 164 166 166 161 158 158 158 156 153 149 147 146 143 135 111 336 329 323 317 314 312 309 305 302 302 300 298 295 293 293 295 296 297 298 300 300 300 301 302 303 304 304 304 304 305 305 305 305 305 303 302 300 298 297 297 298 299 299 299
183 181 174 172 197 227 221 197 197 209 239 247 233 222 211 209 211 204 194 188 185 184 183 177 169 164 163 164 166 169 168 163 161 163 164 162 162 165 170 186 226 282 305 309 307 304 300 294 288 284 284 286 287 287 288 289 291 293 295 297 298 299 300 301 302 303 304 305 306 307 307 308 308 308 307 305 304 302 301 298 296 296 296 297 297 297